"Pseudo-MPEC" for ST26H72

Created 2026 Aug 26 0:35:11 UT using Find_Orb

Click here for an explanation of pseudo-MPECs

 
 Astrometry: 
     ST26H72* C2026 08 22.30508220 56 08.833+08 31 57.13   ~8OFo 18.97GVNEOCPU68
     ST26H72  C2026 08 22.30842320 56 14.625+08 27 11.68   ~8OFo 18.97GVNEOCPU68
     ST26H72  C2026 08 22.31878520 56 32.705+08 12 29.32   ~8OFo 19.10GVNEOCPU74
     ST26H72  C2026 08 22.32195920 56 38.215+08 07 59.61   ~8OFo 19.10GVNEOCPU74
     ST26H72  C2026 08 22.34159020 57 12.508+07 40 03.36   ~8OFo 19.40GVNEOCPU74
     ST26H72  C2026 08 22.34493220 57 18.380+07 35 18.04   ~8OFo 19.40GVNEOCPU74

Station data:
(U68) JPL SynTrack Robotic Telescope, Auberry  (N37.070387 W119.412990)
   US/California.  Observers N. Saini, C. Zhai, R. Trahan, M. Zhan, M. Shao.
   0.28-m f/2.2 Schmidt + CCD.
(U74) JPL SynTrack Robotic Telescope 2, Auberry  (N37.070341 W119.412800)
   US/California.  Observers N. Saini, C. Zhai, R. Trahan, M. Zhan, M. Shao.
   0.36-m f/2.2 Schmidt.

Orbital elements:  ST26H72
   Perihelion 2026 Jul 4.673012 +/- 20.3 TT = 16:09:08.2 (JD 2461226.173012)
Epoch 2026 Aug 22.0 TT = JDT 2461274.5   Earth MOID: 0.0228      AutoNEOCP
M  28.646996367 +/- 22              (J2000 ecliptic)
n   0.592774299 +/- 0.302           Peri.  119.166613 +/- 21
a   1.403491559 +/- 0.476           Node   149.677232 +/- 0.12
e   0.36113255 +/- 0.228            Incl.   28.405558 +/- 10
P   1.663/607.302d         H 26.37  G  0.15   U 11.9  SR
q 0.896645061 +/- 0.0421    Q 1.910338056 +/- 2.33
From 6 observations 2026 Aug. 22 (57.4 min); mean residual 1".03
Residuals in arcseconds: 
260822 U68  .82+  1.1-    260822 U74  .44-  1.2+    260822 U74  .10-  .32-    
260822 U68  .02+  1.1-    260822 U74  .92-  2.4+    260822 U74  .63+  1.0-    

Ephemerides (geocentric):
Date (UTC) HH   RA             Dec           delta  r     elong  mag " sig PA
---- --------  ------------   ------------  ------ ------ -----  --- --------
2026 08 26 01  22 15 30.464   -42 12 26.73  .04680 1.0508 148.4 21.1 410'  36
2026 08 26 02  22 16 04.870   -42 26 16.36  .04717 1.0510 148.1 21.2 413'  37
2026 08 26 03  22 16 38.988   -42 39 52.29  .04754 1.0512 147.9 21.2 416'  37
2026 08 26 04  22 17 12.821   -42 53 14.81  .04792 1.0514 147.7 21.2 418'  37
2026 08 26 05  22 17 46.371   -43 06 24.20  .04829 1.0516 147.4 21.2 421'  38
2026 08 26 06  22 18 19.642   -43 19 20.73  .04866 1.0518 147.2 21.3 424'  38
2026 08 26 07  22 18 52.636   -43 32 04.68  .04904 1.0520 147.0 21.3 426'  38
2026 08 26 08  22 19 25.357   -43 44 36.31  .04941 1.0522 146.7 21.3 429'  38
2026 08 26 09  22 19 57.807   -43 56 55.88  .04979 1.0525 146.5 21.3 431'  39
2026 08 26 10  22 20 29.990   -44 09 03.64  .05017 1.0527 146.3 21.3 434'  39
2026 08 26 11  22 21 01.907   -44 20 59.83  .05055 1.0529 146.1 21.4 436'  39
2026 08 26 12  22 21 33.563   -44 32 44.71  .05093 1.0531 145.9 21.4 439'  40
2026 08 26 13  22 22 04.959   -44 44 18.49  .05131 1.0533 145.7 21.4 441'  40
2026 08 26 14  22 22 36.099   -44 55 41.41  .05169 1.0535 145.5 21.4 443'  40
2026 08 26 15  22 23 06.986   -45 06 53.69  .05207 1.0537 145.3 21.5 446'  40
2026 08 26 16  22 23 37.621   -45 17 55.55  .05245 1.0539 145.1 21.5 448'  41
2026 08 26 17  22 24 08.007   -45 28 47.19  .05283 1.0541 144.9 21.5 450'  41
2026 08 26 18  22 24 38.148   -45 39 28.84  .05322 1.0543 144.7 21.5 453'  41
2026 08 26 19  22 25 08.045   -45 50 00.68  .05360 1.0546 144.5 21.5 455'  41
2026 08 26 20  22 25 37.702   -46 00 22.92  .05398 1.0548 144.3 21.6 457'  42
2026 08 26 21  22 26 07.121   -46 10 35.75  .05437 1.0550 144.1 21.6 459'  42
2026 08 26 22  22 26 36.303   -46 20 39.36  .05475 1.0552 143.9 21.6 461'  42
2026 08 26 23  22 27 05.253   -46 30 33.92  .05514 1.0554 143.7 21.6 463'  42
2026 08 27 00  22 27 33.972   -46 40 19.63  .05553 1.0556 143.6 21.6 465'  43
2026 08 27 01  22 28 02.462   -46 49 56.64  .05592 1.0558 143.4 21.7 467'  43
2026 08 27 02  22 28 30.726   -46 59 25.15  .05630 1.0560 143.2 21.7 469'  43
2026 08 27 03  22 28 58.766   -47 08 45.30  .05669 1.0562 143.0 21.7 471'  43
2026 08 27 04  22 29 26.585   -47 17 57.27  .05708 1.0565 142.9 21.7 473'  44
2026 08 27 05  22 29 54.185   -47 27 01.21  .05747 1.0567 142.7 21.7 475'  44
2026 08 27 06  22 30 21.568   -47 35 57.28  .05786 1.0569 142.5 21.8 477'  44
2026 08 27 07  22 30 48.736   -47 44 45.62  .05825 1.0571 142.4 21.8 479'  44
2026 08 27 08  22 31 15.692   -47 53 26.40  .05864 1.0573 142.2 21.8 481'  45
2026 08 27 09  22 31 42.438   -48 01 59.75  .05904 1.0575 142.0 21.8 482'  45
2026 08 27 10  22 32 08.975   -48 10 25.80  .05943 1.0577 141.9 21.8 484'  45
2026 08 27 11  22 32 35.307   -48 18 44.72  .05982 1.0579 141.7 21.9 486'  45
2026 08 27 12  22 33 01.434   -48 26 56.61  .06021 1.0582 141.6 21.9 488'  46
2026 08 27 13  22 33 27.360   -48 35 01.62  .06061 1.0584 141.4 21.9 489'  46
2026 08 27 14  22 33 53.086   -48 42 59.88  .06100 1.0586 141.3 21.9 491'  46
2026 08 27 15  22 34 18.614   -48 50 51.51  .06140 1.0588 141.1 21.9 493'  46
2026 08 27 16  22 34 43.946   -48 58 36.64  .06179 1.0590 141.0 21.9 494'  47
2026 08 27 17  22 35 09.084   -49 06 15.37  .06219 1.0592 140.8 22.0 496'  47
2026 08 27 18  22 35 34.031   -49 13 47.84  .06258 1.0594 140.7 22.0 497'  47
2026 08 27 19  22 35 58.788   -49 21 14.16  .06298 1.0596 140.6 22.0 499'  47
2026 08 27 20  22 36 23.356   -49 28 34.43  .06338 1.0599 140.4 22.0 501'  47
2026 08 27 21  22 36 47.739   -49 35 48.77  .06377 1.0601 140.3 22.0 502'  48
2026 08 27 22  22 37 11.937   -49 42 57.28  .06417 1.0603 140.1 22.0 504'  48
2026 08 27 23  22 37 35.953   -49 50 00.08  .06457 1.0605 140.0 22.1 505'  48
2026 08 28 00  22 37 59.788   -49 56 57.25  .06497 1.0607 139.9 22.1 506'  48